sat.trackr.live / text

‹ back to catalog

STARLINK-34510

NORAD 64596 · 2025-137C

PAYLOAD ACTIVE UNKNOWN

§ Identity

Operator
Country
US
Launch date
2025-06-25
Launch site
AFETR
Launch vehicle
Mass (kg)
RCS (m²)

Purposes: comms

External: N2YO · Heavens-Above · Gunter

§ Orbital elements

Epoch: 2026-05-24T12:35:28.241952Z

Period
94.10 min
Inclination
53.1598°
Eccentricity
0.0001352
Mean motion
15.30211986 rev/d
Perigee alt
474.3 km
Apogee alt
476.1 km
Semi-major
6,853.3 km
B*
7.8843e-4
RAAN
343.1303°
Arg perigee
94.1300°
Mean anomaly
265.9855°
Rev number
5,234

§ Raw data

STARLINK-345101 64596U 25137C   26144.52463243  .00023073  00000+0  78843-3 0  99912 64596  53.1598 343.1303 0001352  94.1300 265.9855 15.30211986 52348

JSON: /api/v1/satellites/64596 · /tle

For live sub-satellite position, see the globe view (requires WebGL).

§ Visibility from observer

Set your observer location to see the next 7 days of passes ≥ 10°. The values pass through the URL so the page stays shareable.

No JS? Fill the form by hand. The geolocation button needs JavaScript.